{"data":{"norad_id":56154,"epoch":"2026-05-24T10:22:38.693856Z","epoch_age_seconds":130928,"freshness":"FRESH","line1":"1 56154U 23047B   26144.43239229  .00001967  00000+0  11103-3 0  9999","line2":"2 56154  97.4997 331.9202 0001568  84.1437 275.9973 15.14308603174202","mean_motion":15.14308603,"eccentricity":0.0001568,"inclination_deg":97.4997,"raan_deg":331.9202,"arg_perigee_deg":84.1437,"mean_anomaly_deg":275.9973,"bstar":0.00011103,"rev_number":17420,"period_min":95.092902275482,"perigee_km":521.99627019501,"apogee_km":524.16049133842,"semimajor_km":6901.2153807667,"source":"CELESTRAK","updated_at":"2026-05-25T13:37:59.365315Z"}}